Simultaneous Nadir Overpasses (SNOs) Predictions

Prediction of SNOs between NOAA-19 and TERRA Satellite Orbit:

Table of predicted SNOs for the next 14.0 days since TLE Epoch: 1/18/2014
Index Date (NOAA-19) Time (NOAA-19) Lat,Lon (NOAA-19) SZA (NOAA-19 ) Date (TERRA) Time (TERRA) Lat,Lon (TERRA) SZA (TERRA ) Distance(km) Time Diff (sec)
1 01/20/2014 01:41:21 70.16, 155.32 90.23 01/20/2014 01:42:08 70.18, 155.38 90.24 3.23 47
2 01/20/2014 02:32:14 -70.03, -37.22 89.91 01/20/2014 02:31:39 -70.01, -37.22 89.93 2.45 35
3 01/22/2014 06:25:26 70.19, 84.27 89.78 01/22/2014 06:26:23 70.18, 84.32 89.76 2.12 57
4 01/22/2014 07:16:19 -70.07,-108.27 90.36 01/22/2014 07:15:53 -70.07,-108.20 90.36 2.61 26
5 01/24/2014 11:09:30 70.17, 13.29 89.25 01/24/2014 11:10:38 70.17, 13.25 89.24 1.82 68
6 01/24/2014 12:00:23 -70.06,-179.25 90.89 01/24/2014 12:00:08 -70.06,-179.27 90.88 1.42 15
7 01/26/2014 15:53:39 70.43, -58.12 88.97 01/26/2014 15:54:50 70.32, -57.61 88.84 22.95 71
8 01/26/2014 16:44:28 -70.10, 109.68 91.39 01/26/2014 16:44:22 -70.10, 109.72 91.39 1.30 6
9 01/28/2014 20:37:49 70.75,-129.64 88.72 01/28/2014 20:38:58 70.67,-128.15 88.61 55.35 69
10 01/28/2014 21:28:32 -70.10, 38.69 91.96 01/28/2014 21:28:36 -70.13, 38.69 91.94 2.93 4
11 01/28/2014 22:19:24 69.23,-152.78 87.15 01/28/2014 22:18:16 69.29,-154.81 87.24 80.16 68
12 01/31/2014 01:22:00 71.12, 158.72 88.51 01/31/2014 01:23:06 71.00, 161.31 88.35 94.19 66
13 01/31/2014 02:12:37 -70.16, -32.40
